Weather History for Eastover, SC

Change the Weather History Date:

Thursday, April 18, 2013

  Actual Average Record
Temperature  
Mean Temperature 69 °F -  
Max Temperature 80 °F 74 °F 89 °F (2002)
Min Temperature 59 °F 52 °F 36 °F (2001)
Cooling Degree Days 4    
Growing Degree Days 19 (Base 50)    
Moisture  
Dew Point 62 °F    
Average Humidity 77    
Maximum Humidity 100    
Minimum Humidity 51    
Precipitation  
Precipitation 0.00 in - - ()
Sea Level Pressure  
Sea Level Pressure 30.11 in    
Wind  
Wind Speed 6 mph (ESE)    
Max Wind Speed 15 mph    
Max Gust Speed 21 mph    
Visibility 10 miles    
Events Fog , Rain    
Averages and records for this station are not official NWS values.
T = Trace of Precipitation, MM = Missing Value Source: NWS Daily Summary

Daily Weather History Graph

Daily Weather History Graph

Search for Another Location

Airport:

Trip Planner

Search our weather history database for the weather conditions in past years. The results will help you decide how hot, cold, wet, or windy it might be!

Date:

Astronomy

Apr. 18, 2013 Rise Set
Actual Time 6:48 AM EDT 7:57 PM EDT
Civil Twilight 6:22 AM EDT 8:22 PM EDT
Nautical Twilight 5:51 AM EDT 8:53 PM EDT
Astronomical Twilight 5:20 AM EDT 9:25 PM EDT
Moon 1:01 PM EDT (4/18) 2:07 AM EDT (4/18)
Length of Visible Light 14h 00m
Length of Day
13h 08m
First Quarter, 51% of the Moon is Illuminated
Apr 18
First Quarter
Apr 25
Full
May 2
Last Quarter
May 9
New
May 18
First Quarter

Hourly Weather History & Observations

Time (EDT) Temp. Dew Point Humidity Pressure Visibility Wind Dir Wind Speed Gust Speed Precip Events Conditions
12:58 AM 64.4 °F 59.7 °F 85% 30.16 in 10.0 mi East 2.3 mph - N/A   Mostly Cloudy
1:58 AM 61.7 °F 59.2 °F 91% 30.14 in 10.0 mi ESE 2.3 mph - N/A   Clear
2:58 AM 61.0 °F 59.5 °F 95% 30.13 in 10.0 mi East 2.3 mph - N/A   Clear
3:58 AM 60.1 °F 58.8 °F 96% 30.12 in 10.0 mi East 2.3 mph - N/A   Clear
4:58 AM 59.5 °F 59.2 °F 99% 30.13 in 10.0 mi NE 2.3 mph - N/A   Clear
5:58 AM 59.7 °F 59.5 °F 99% 30.14 in 10.0 mi NE 2.3 mph - N/A   Clear
6:58 AM 59.0 °F 59.0 °F 100% 30.16 in 7.0 mi ENE 1.2 mph - N/A Fog Shallow Fog
7:58 AM 63.0 °F 63.0 °F 100% 30.17 in 10.0 mi East 4.6 mph - N/A   Mostly Cloudy
8:08 AM 64.4 °F 64.4 °F 100% 30.16 in 10.0 mi East 5.8 mph - N/A   Mostly Cloudy
8:58 AM 66.9 °F 63.7 °F 89% 30.17 in 10.0 mi ESE 8.1 mph - N/A   Mostly Cloudy
9:58 AM 72.1 °F 64.6 °F 77% 30.17 in 10.0 mi SE 9.2 mph - N/A   Scattered Clouds
10:58 AM 75.2 °F 64.4 °F 69% 30.16 in 10.0 mi ESE 9.2 mph - N/A   Mostly Cloudy
11:18 AM 75.2 °F 64.4 °F 69% 30.15 in 10.0 mi SE 11.5 mph - N/A   Mostly Cloudy
11:38 AM 75.2 °F 64.4 °F 69% 30.15 in 10.0 mi ESE 8.1 mph - N/A   Mostly Cloudy
11:58 AM 77.2 °F 63.9 °F 63% 30.14 in 10.0 mi SSE 10.4 mph - N/A   Scattered Clouds
12:58 PM 76.8 °F 62.4 °F 61% 30.14 in 10.0 mi SE 10.4 mph - N/A   Mostly Cloudy
1:00 PM 77.0 °F 62.6 °F 61% 30.13 in 10.0 mi SE 11.5 mph - N/A Rain Light Rain Showers
1:09 PM 77.0 °F 62.6 °F 61% 30.13 in 10.0 mi SE 13.8 mph - N/A   Mostly Cloudy
1:58 PM 74.5 °F 64.4 °F 71% 30.13 in 10.0 mi South 13.8 mph - 0.00 in   Mostly Cloudy
2:58 PM 77.0 °F 64.4 °F 65% 30.10 in 10.0 mi South 5.8 mph - N/A   Mostly Cloudy
3:58 PM 79.7 °F 63.3 °F 57% 30.06 in 10.0 mi SE 12.7 mph - N/A   Mostly Cloudy
4:58 PM 78.3 °F 61.7 °F 57% 30.06 in 10.0 mi SSE 12.7 mph - N/A   Mostly Cloudy
5:58 PM 79.9 °F 60.3 °F 51% 30.04 in 10.0 mi SSE 15.0 mph 19.6 mph N/A   Scattered Clouds
6:58 PM 77.5 °F 61.0 °F 57% 30.03 in 10.0 mi SE 12.7 mph 20.7 mph N/A   Scattered Clouds
7:58 PM 73.4 °F 60.6 °F 64% 30.03 in 10.0 mi ESE 10.4 mph 19.6 mph N/A   Scattered Clouds
8:58 PM 70.5 °F 60.8 °F 71% 30.06 in 10.0 mi SE 8.1 mph - N/A   Scattered Clouds
9:58 PM 67.5 °F 60.3 °F 78% 30.06 in 10.0 mi SE 5.8 mph - N/A   Scattered Clouds
10:58 PM 65.7 °F 60.8 °F 84% 30.06 in 10.0 mi ESE 6.9 mph - N/A   Scattered Clouds
11:58 PM 66.4 °F 62.6 °F 88% 30.04 in 10.0 mi ESE 5.8 mph - N/A   Overcast